カタログに戻る

COSMOS 252 DEB

運用中LEO
NORAD 18556·DEBRIS·🇷🇺 Russia

打ち上げ Nov 1, 1968 から Baikonur Cosmodrome

Loading…

次のパス (今後24時間)

TLE

最新Source: Space-Track

元期: Sep 13, 2026, 19:52 UTC

1 18556U 68097EP  26256.82794533  .00001763  00000-0  96480-3 0  9994
2 18556  62.1934  58.6241 0391750 286.6765  69.1617 13.82171745510064

AllMySatでCOSMOS 252 DEBをリアルタイム追跡

Download on the App Store